�������l�o���
Date,Time,MP-1(��Sv/h),MP-2(��Sv/h),MP-3(��Sv/h),MP-4(��Sv/h),MP-5(��Sv/h),MP-6(��Sv/h),MP-7(��Sv/h),MP-8(��Sv/h),����,����(m/s),���J
2020/12/21,00:00,0.670,0.964,0.612,1.219,0.852,0.381,0.673,0.635,�k��,1.5,��
2020/12/21,00:10,0.670,0.965,0.611,1.218,0.854,0.379,0.675,0.634,�k,1.1,��
2020/12/21,00:20,0.670,0.963,0.610,1.217,0.850,0.380,0.674,0.634,�k��,1.1,��
2020/12/21,00:30,0.670,0.964,0.612,1.216,0.851,0.379,0.674,0.634,�k��,0.9,��
2020/12/21,00:40,0.670,0.962,0.611,1.219,0.852,0.380,0.672,0.636,�k��,1.5,��
2020/12/21,00:50,0.668,0.961,0.612,1.219,0.853,0.378,0.676,0.634,�k��,1.2,��
2020/12/21,01:00,0.669,0.962,0.610,1.218,0.852,0.380,0.674,0.635,�k,1.4,��
2020/12/21,01:10,0.670,0.961,0.611,1.217,0.852,0.379,0.675,0.635,�k,2.0,��
2020/12/21,01:20,0.670,0.964,0.612,1.219,0.852,0.379,0.675,0.634,�k,2.2,��
2020/12/21,01:30,0.670,0.963,0.612,1.216,0.850,0.379,0.673,0.636,�k�k��,2.0,��
2020/12/21,01:40,0.671,0.964,0.610,1.219,0.852,0.379,0.673,0.636,�k�k��,1.1,��
2020/12/21,01:50,0.670,0.963,0.611,1.217,0.853,0.378,0.674,0.634,�k�k��,1.2,��
2020/12/21,02:00,0.669,0.964,0.611,1.216,0.851,0.379,0.673,0.635,���k��,0.6,��
2020/12/21,02:10,0.668,0.961,0.611,1.217,0.851,0.379,0.674,0.635,��,0.9,��
2020/12/21,02:20,0.669,0.963,0.611,1.216,0.850,0.379,0.674,0.636,���쐼,0.6,��
2020/12/21,02:30,0.670,0.964,0.611,1.218,0.853,0.379,0.675,0.636,��,0.8,��
2020/12/21,02:40,0.669,0.962,0.610,1.218,0.851,0.379,0.674,0.636,�쐼,1.2,��
2020/12/21,02:50,0.668,0.964,0.611,1.219,0.850,0.379,0.674,0.636,��,1.5,��
2020/12/21,03:00,0.668,0.963,0.612,1.218,0.852,0.379,0.674,0.635,��,1.9,��
2020/12/21,03:10,0.669,0.962,0.612,1.217,0.851,0.380,0.674,0.637,���쐼,2.6,��
2020/12/21,03:20,0.671,0.961,0.610,1.217,0.854,0.380,0.673,0.637,���쐼,2.9,��
2020/12/21,03:30,0.668,0.961,0.612,1.218,0.851,0.379,0.674,0.635,��,3.1,��
2020/12/21,03:40,0.669,0.964,0.613,1.219,0.851,0.379,0.674,0.636,���쐼,2.9,��
2020/12/21,03:50,0.669,0.962,0.612,1.220,0.851,0.379,0.674,0.637,�쐼,3.1,��
2020/12/21,04:00,0.670,0.963,0.612,1.217,0.853,0.380,0.673,0.636,�쐼,1.7,��
2020/12/21,04:10,0.669,0.964,0.611,1.216,0.852,0.379,0.674,0.636,���쐼,0.6,��
2020/12/21,04:20,0.670,0.963,0.612,1.217,0.853,0.379,0.673,0.635,-,CALM,��
2020/12/21,04:30,0.668,0.962,0.612,1.217,0.851,0.379,0.674,0.634,-,CALM,��
2020/12/21,04:40,0.669,0.962,0.612,1.216,0.852,0.378,0.673,0.637,��,0.9,��
2020/12/21,04:50,0.670,0.961,0.611,1.218,0.853,0.379,0.674,0.634,�쓌,1.2,��
2020/12/21,05:00,0.669,0.960,0.611,1.216,0.854,0.379,0.674,0.636,��,1.2,��
2020/12/21,05:10,0.670,0.960,0.612,1.219,0.850,0.381,0.674,0.636,���k��,1.7,��
2020/12/21,05:20,0.671,0.961,0.611,1.217,0.850,0.379,0.673,0.634,��,1.5,��
2020/12/21,05:30,0.670,0.963,0.611,1.217,0.849,0.378,0.675,0.635,��,1.1,��
2020/12/21,05:40,0.671,0.962,0.612,1.218,0.851,0.378,0.674,0.634,��쓌,1.1,��
2020/12/21,05:50,0.670,0.963,0.610,1.219,0.852,0.380,0.674,0.635,�쐼,2.0,��
2020/12/21,06:00,0.669,0.961,0.611,1.219,0.851,0.379,0.676,0.637,�쐼,3.0,��
2020/12/21,06:10,0.669,0.963,0.611,1.219,0.851,0.379,0.675,0.635,�쐼,4.4,��
2020/12/21,06:20,0.670,0.960,0.612,1.217,0.850,0.378,0.673,0.636,�쐼,4.4,��
2020/12/21,06:30,0.670,0.961,0.613,1.219,0.850,0.379,0.673,0.635,�쐼,4.6,��
2020/12/21,06:40,0.670,0.961,0.612,1.216,0.850,0.381,0.675,0.635,�쐼,4.6,��
2020/12/21,06:50,0.671,0.963,0.611,1.219,0.851,0.379,0.673,0.635,�쐼,4.4,��
2020/12/21,07:00,0.670,0.964,0.613,1.216,0.851,0.379,0.674,0.635,�쐼,4.0,��
2020/12/21,07:10,0.671,0.964,0.612,1.219,0.852,0.379,0.674,0.636,���쐼,3.5,��
2020/12/21,07:20,0.669,0.964,0.613,1.219,0.851,0.379,0.675,0.634,��,4.0,��
2020/12/21,07:30,0.669,0.961,0.612,1.217,0.849,0.380,0.673,0.635,��,2.5,��
2020/12/21,07:40,0.670,0.961,0.611,1.217,0.852,0.379,0.672,0.634,���k��,3.1,��
2020/12/21,07:50,0.669,0.959,0.611,1.217,0.852,0.379,0.674,0.636,���k��,3.5,��
2020/12/21,08:00,0.671,0.961,0.613,1.219,0.850,0.379,0.675,0.637,���k��,3.2,��
2020/12/21,08:10,0.670,0.961,0.612,1.219,0.850,0.380,0.675,0.636,���k��,3.3,��
2020/12/21,08:20,0.672,0.959,0.613,1.218,0.852,0.381,0.675,0.637,�k��,1.5,��
2020/12/21,08:30,0.672,0.959,0.612,1.222,0.851,0.380,0.674,0.634,�k��,0.9,��
2020/12/21,08:40,0.672,0.962,0.612,1.219,0.850,0.379,0.675,0.637,��,0.6,��
2020/12/21,08:50,0.672,0.961,0.612,1.219,0.852,0.380,0.676,0.637,�k,1.9,��
2020/12/21,09:00,0.672,0.960,0.611,1.218,0.851,0.379,0.675,0.637,�k�k��,1.9,��
2020/12/21,09:10,0.673,0.959,0.611,1.217,0.851,0.379,0.677,0.634,�k�k��,0.9,��
2020/12/21,09:20,0.672,0.959,0.614,1.217,0.852,0.380,0.676,0.636,��,1.1,��
2020/12/21,09:30,0.673,0.960,0.613,1.217,0.852,0.381,0.675,0.635,��,1.4,��
2020/12/21,09:40,0.672,0.962,0.613,1.218,0.852,0.380,0.678,0.636,��쓌,1.5,��
2020/12/21,09:50,0.673,0.960,0.613,1.218,0.851,0.379,0.676,0.636,��,1.9,��
2020/12/21,10:00,0.671,0.960,0.612,1.219,0.849,0.380,0.675,0.636,��쐼,0.9,��
2020/12/21,10:10,0.672,0.962,0.614,1.218,0.850,0.380,0.674,0.637,��쓌,2.0,��
2020/12/21,10:20,0.674,0.961,0.613,1.220,0.847,0.381,0.674,0.635,��쐼,1.4,��
2020/12/21,10:30,0.672,0.958,0.612,1.220,0.850,0.382,0.674,0.636,-,CALM,��
2020/12/21,10:40,0.671,0.958,0.613,1.219,0.851,0.381,0.675,0.637,�k��,1.5,��
2020/12/21,10:50,0.672,0.958,0.614,1.219,0.854,0.380,0.676,0.637,���쓌,1.7,��
2020/12/21,11:00,0.673,0.958,0.612,1.221,0.853,0.380,0.673,0.636,�k��,3.0,��
2020/12/21,11:10,0.671,0.959,0.614,1.220,0.853,0.380,0.674,0.639,�k��,4.3,��
2020/12/21,11:20,0.674,0.958,0.614,1.223,0.855,0.380,0.676,0.637,�k��,3.3,��
2020/12/21,11:30,0.675,0.961,0.614,1.218,0.854,0.380,0.675,0.638,�k��,3.1,��
2020/12/21,11:40,0.672,0.961,0.614,1.221,0.854,0.381,0.676,0.637,�k��,2.8,��
2020/12/21,11:50,0.674,0.962,0.612,1.220,0.853,0.381,0.675,0.636,�k��,2.3,��
2020/12/21,12:00,0.674,0.962,0.615,1.220,0.854,0.381,0.675,0.637,���k��,2.0,��
2020/12/21,12:10,0.672,0.965,0.614,1.221,0.854,0.381,0.676,0.638,���k��,3.0,��
2020/12/21,12:20,0.674,0.966,0.615,1.222,0.855,0.379,0.677,0.637,��,2.6,��
2020/12/21,12:30,0.676,0.965,0.615,1.220,0.855,0.379,0.677,0.637,�k��,3.3,��
2020/12/21,12:40,0.676,0.966,0.613,1.222,0.854,0.381,0.677,0.638,��,1.7,��
2020/12/21,12:50,0.674,0.966,0.615,1.220,0.855,0.380,0.675,0.639,��,2.8,��
2020/12/21,13:00,0.674,0.963,0.613,1.220,0.855,0.381,0.675,0.638,���쓌,2.3,��
2020/12/21,13:10,0.675,0.962,0.614,1.221,0.855,0.381,0.675,0.637,��,2.2,��
2020/12/21,13:20,0.675,0.963,0.612,1.222,0.856,0.382,0.676,0.637,���쓌,1.9,��
2020/12/21,13:30,0.676,0.962,0.614,1.219,0.855,0.381,0.675,0.638,���쓌,2.6,��
2020/12/21,13:40,0.672,0.963,0.615,1.219,0.853,0.381,0.676,0.636,��,2.5,��
2020/12/21,13:50,0.674,0.961,0.615,1.218,0.858,0.381,0.675,0.636,��,2.0,��
2020/12/21,14:00,0.675,0.963,0.612,1.220,0.855,0.381,0.676,0.638,��,2.3,��
2020/12/21,14:10,0.673,0.964,0.615,1.219,0.855,0.382,0.677,0.636,��,2.2,��
2020/12/21,14:20,0.674,0.964,0.613,1.219,0.855,0.382,0.677,0.638,���쓌,2.0,��
2020/12/21,14:30,0.676,0.965,0.614,1.220,0.857,0.380,0.677,0.637,���k��,1.2,��
2020/12/21,14:40,0.676,0.963,0.615,1.222,0.856,0.381,0.676,0.636,���k��,1.7,��
2020/12/21,14:50,0.673,0.963,0.613,1.222,0.857,0.380,0.676,0.638,�k��,2.2,��
2020/12/21,15:00,0.672,0.966,0.614,1.221,0.856,0.381,0.676,0.637,�k��,2.0,��
2020/12/21,15:10,0.674,0.966,0.614,1.219,0.856,0.382,0.676,0.638,�k�k��,2.3,��
2020/12/21,15:20,0.672,0.963,0.616,1.220,0.856,0.379,0.677,0.637,�k�k��,2.6,��
2020/12/21,15:30,0.674,0.964,0.613,1.219,0.857,0.381,0.676,0.636,�k��,2.5,��
2020/12/21,15:40,0.673,0.966,0.615,1.221,0.856,0.381,0.678,0.637,�k��,1.2,��
2020/12/21,15:50,0.674,0.966,0.616,1.219,0.858,0.380,0.678,0.635,�k��,1.4,��
2020/12/21,16:00,0.674,0.966,0.614,1.221,0.856,0.381,0.676,0.636,�k�k��,2.3,��
2020/12/21,16:10,0.674,0.965,0.613,1.218,0.854,0.380,0.676,0.637,�k�k��,1.2,��
2020/12/21,16:20,0.673,0.965,0.614,1.222,0.856,0.381,0.675,0.638,�k�k��,0.9,��
2020/12/21,16:30,0.675,0.965,0.613,1.219,0.855,0.380,0.676,0.636,-,CALM,��
2020/12/21,16:40,0.674,0.965,0.615,1.218,0.853,0.381,0.675,0.636,�쐼,0.6,��
2020/12/21,16:50,0.673,0.964,0.614,1.221,0.855,0.380,0.674,0.637,���쐼,0.9,��
2020/12/21,17:00,0.672,0.966,0.612,1.219,0.855,0.381,0.675,0.635,��,3.1,��
2020/12/21,17:10,0.672,0.964,0.613,1.219,0.856,0.380,0.675,0.636,��,3.7,��
2020/12/21,17:20,0.672,0.965,0.614,1.221,0.855,0.379,0.674,0.636,��,3.8,��
2020/12/21,17:30,0.674,0.964,0.611,1.219,0.853,0.380,0.676,0.636,��,5.5,��
2020/12/21,17:40,0.671,0.964,0.612,1.219,0.854,0.381,0.676,0.636,��,6.0,��
2020/12/21,17:50,0.672,0.965,0.612,1.219,0.853,0.380,0.674,0.637,��,6.2,��
2020/12/21,18:00,0.673,0.964,0.614,1.220,0.854,0.380,0.675,0.634,��,6.1,��
2020/12/21,18:10,0.674,0.965,0.613,1.218,0.856,0.381,0.675,0.636,��,6.0,��
2020/12/21,18:20,0.672,0.966,0.611,1.218,0.854,0.380,0.676,0.636,��,6.2,��
2020/12/21,18:30,0.671,0.965,0.613,1.221,0.855,0.380,0.676,0.637,���k��,4.6,��
2020/12/21,18:40,0.672,0.965,0.614,1.218,0.855,0.379,0.676,0.636,���k��,3.7,��
2020/12/21,18:50,0.672,0.965,0.612,1.217,0.854,0.380,0.674,0.636,���k��,3.4,��
2020/12/21,19:00,0.673,0.964,0.612,1.221,0.853,0.381,0.675,0.636,���k��,3.3,��
2020/12/21,19:10,0.671,0.965,0.612,1.219,0.853,0.379,0.674,0.637,���k��,2.9,��
2020/12/21,19:20,0.672,0.966,0.613,1.221,0.853,0.380,0.675,0.635,���k��,3.5,��
2020/12/21,19:30,0.672,0.965,0.612,1.218,0.853,0.381,0.673,0.635,��,3.7,��
2020/12/21,19:40,0.674,0.965,0.611,1.217,0.855,0.379,0.674,0.636,��,3.3,��
2020/12/21,19:50,0.673,0.964,0.613,1.219,0.855,0.380,0.675,0.637,��,3.7,��
2020/12/21,20:00,0.671,0.965,0.612,1.220,0.854,0.378,0.676,0.636,��,3.9,��
2020/12/21,20:10,0.672,0.963,0.613,1.222,0.854,0.379,0.675,0.636,���쐼,3.6,��
2020/12/21,20:20,0.674,0.964,0.611,1.217,0.854,0.379,0.675,0.636,�쐼,3.5,��
2020/12/21,20:30,0.672,0.966,0.613,1.219,0.855,0.381,0.676,0.636,���쐼,3.7,��
2020/12/21,20:40,0.672,0.966,0.613,1.218,0.853,0.380,0.674,0.636,�쐼,3.5,��
2020/12/21,20:50,0.671,0.963,0.612,1.219,0.855,0.381,0.675,0.636,�쐼,2.5,��
2020/12/21,21:00,0.672,0.965,0.613,1.220,0.855,0.380,0.675,0.636,���쐼,2.3,��
2020/12/21,21:10,0.674,0.963,0.612,1.218,0.855,0.380,0.674,0.636,�쐼,2.5,��
2020/12/21,21:20,0.674,0.963,0.612,1.220,0.855,0.380,0.675,0.635,���쐼,2.3,��
2020/12/21,21:30,0.672,0.963,0.611,1.219,0.854,0.379,0.674,0.637,���쐼,2.0,��
2020/12/21,21:40,0.671,0.963,0.611,1.219,0.854,0.379,0.675,0.636,���쐼,2.3,��
2020/12/21,21:50,0.673,0.965,0.613,1.219,0.855,0.381,0.674,0.635,���쐼,2.8,��
2020/12/21,22:00,0.670,0.962,0.611,1.219,0.855,0.379,0.674,0.634,�쐼,3.1,��
2020/12/21,22:10,0.672,0.963,0.614,1.217,0.854,0.380,0.675,0.636,�쐼,2.5,��
2020/12/21,22:20,0.673,0.963,0.612,1.218,0.854,0.381,0.675,0.637,�쐼,2.3,��
2020/12/21,22:30,0.673,0.963,0.613,1.218,0.855,0.380,0.674,0.636,�쐼,3.2,��
2020/12/21,22:40,0.672,0.964,0.614,1.219,0.854,0.379,0.675,0.638,�쐼,5.0,��
2020/12/21,22:50,0.673,0.964,0.613,1.221,0.856,0.381,0.675,0.637,�쐼,4.6,��
2020/12/21,23:00,0.673,0.966,0.613,1.219,0.855,0.380,0.676,0.635,�쐼,4.2,��
2020/12/21,23:10,0.674,0.965,0.613,1.219,0.853,0.381,0.675,0.636,�쐼,4.8,��
2020/12/21,23:20,0.673,0.965,0.613,1.218,0.853,0.381,0.674,0.636,�쐼,4.9,��
2020/12/21,23:30,0.673,0.963,0.611,1.222,0.854,0.380,0.675,0.637,���쐼,3.5,��
2020/12/21,23:40,0.673,0.965,0.612,1.220,0.853,0.381,0.675,0.636,���쐼,2.4,��
2020/12/21,23:50,0.673,0.964,0.613,1.219,0.855,0.380,0.674,0.635,���쐼,2.6,��
